Time,TemperatureF,DewpointF,PressureIn,WindDirection,WindDirectionDegrees,WindSpeedMPH,WindSpeedGustMPH,Humidity,HourlyPrecipIn,Conditions,Clouds,dailyrainin,SolarRadiationWatts/m^2,SoftwareType,DateUTC
2013-07-08 00:02:00,55.0,52.0,-100.00,South,172,2.0,3.0,89,0.00,,,0.00,0.000000,,2013-07-08 07:02:00,
2013-07-08 00:11:00,55.0,52.0,-100.00,South,172,2.0,3.0,89,0.00,,,0.00,0.000000,,2013-07-08 07:11:00,
2013-07-08 00:22:00,55.0,52.0,-100.00,South,172,2.0,3.0,89,0.00,,,0.00,0.000000,,2013-07-08 07:22:00,
2013-07-08 00:53:00,55.0,51.0,-100.00,SSE,162,1.0,4.0,86,0.00,,,0.00,0.000000,,2013-07-08 07:53:00,
2013-07-08 01:02:00,55.0,51.0,-100.00,SSE,162,1.0,4.0,86,0.00,,,0.00,0.000000,,2013-07-08 08:02:00,
2013-07-08 01:11:00,55.0,51.0,-100.00,SSE,162,1.0,4.0,86,0.00,,,0.00,0.000000,,2013-07-08 08:11:00,
2013-07-08 01:22:00,55.0,51.0,-100.00,SSE,162,1.0,4.0,86,0.00,,,0.00,0.000000,,2013-07-08 08:22:00,
2013-07-08 01:53:00,55.0,51.0,-100.00,SE,144,1.0,2.0,86,0.00,,,0.00,0.000000,,2013-07-08 08:53:00,
2013-07-08 02:01:00,55.0,51.0,-100.00,SE,144,1.0,2.0,86,0.00,,,0.00,0.000000,,2013-07-08 09:01:00,
2013-07-08 02:11:00,55.0,51.0,-100.00,SE,144,1.0,2.0,86,0.00,,,0.00,0.000000,,2013-07-08 09:11:00,
2013-07-08 02:21:00,55.0,51.0,-100.00,SE,144,1.0,2.0,86,0.00,,,0.00,0.000000,,2013-07-08 09:21:00,
2013-07-08 02:53:00,54.0,50.0,-100.00,SSE,147,0.0,4.0,86,0.00,,,0.00,0.000000,,2013-07-08 09:53:00,
2013-07-08 03:01:00,54.0,50.0,-100.00,SSE,147,0.0,4.0,86,0.00,,,0.00,0.000000,,2013-07-08 10:01:00,
2013-07-08 03:11:00,54.0,50.0,-100.00,SSE,147,0.0,4.0,86,0.00,,,0.00,0.000000,,2013-07-08 10:11:00,
2013-07-08 03:22:00,54.0,50.0,-100.00,SSE,147,0.0,4.0,86,0.00,,,0.00,0.000000,,2013-07-08 10:22:00,
2013-07-08 03:53:00,55.0,48.0,-100.00,SW,224,2.0,3.0,78,0.00,,,0.00,0.000000,,2013-07-08 10:53:00,
2013-07-08 04:02:00,55.0,48.0,-100.00,SW,224,2.0,3.0,78,0.00,,,0.00,0.000000,,2013-07-08 11:02:00,
2013-07-08 04:11:00,55.0,48.0,-100.00,SW,224,2.0,3.0,78,0.00,,,0.00,0.000000,,2013-07-08 11:11:00,
2013-07-08 04:22:00,55.0,48.0,-100.00,SW,224,2.0,3.0,78,0.00,,,0.00,0.000000,,2013-07-08 11:22:00,
2013-07-08 04:53:00,54.0,49.0,-100.00,ESE,114,2.0,3.0,83,0.00,,,0.00,0.000000,,2013-07-08 11:53:00,
2013-07-08 05:01:00,54.0,49.0,-100.00,ESE,114,2.0,3.0,83,0.00,,,0.00,0.000000,,2013-07-08 12:01:00,
2013-07-08 05:11:00,54.0,49.0,-100.00,ESE,114,2.0,3.0,83,0.00,,,0.00,0.000000,,2013-07-08 12:11:00,
2013-07-08 05:22:00,54.0,49.0,-100.00,ESE,114,2.0,3.0,83,0.00,,,0.00,0.000000,,2013-07-08 12:22:00,
2013-07-08 05:53:00,55.0,49.0,-100.00,SE,133,1.0,4.0,81,0.00,,,0.00,0.000000,,2013-07-08 12:53:00,
2013-07-08 06:01:00,55.0,49.0,-100.00,SE,133,1.0,4.0,81,0.00,,,0.00,0.000000,,2013-07-08 13:01:00,
2013-07-08 06:11:00,55.0,49.0,-100.00,SE,133,1.0,4.0,81,0.00,,,0.00,0.000000,,2013-07-08 13:11:00,
2013-07-08 06:22:00,55.0,49.0,-100.00,SE,133,1.0,4.0,81,0.00,,,0.00,0.000000,,2013-07-08 13:22:00,
2013-07-08 06:53:00,57.0,49.0,-100.00,ESE,117,1.0,3.0,74,0.00,,,0.00,29.000000,,2013-07-08 13:53:00,
2013-07-08 07:02:00,57.0,49.0,-100.00,ESE,117,1.0,3.0,74,0.00,,,0.00,29.000000,,2013-07-08 14:02:00,
2013-07-08 07:12:00,57.0,49.0,-100.00,ESE,117,1.0,3.0,74,0.00,,,0.00,29.000000,,2013-07-08 14:12:00,
2013-07-08 07:22:00,57.0,49.0,-100.00,ESE,117,1.0,3.0,74,0.00,,,0.00,29.000000,,2013-07-08 14:22:00,
2013-07-08 07:53:00,62.0,52.0,-100.00,SW,216,0.0,3.0,69,0.00,,,0.00,163.000000,,2013-07-08 14:53:00,
2013-07-08 08:01:00,62.0,52.0,-100.00,SW,216,0.0,3.0,69,0.00,,,0.00,163.000000,,2013-07-08 15:01:00,
2013-07-08 08:11:00,62.0,52.0,-100.00,SW,216,0.0,3.0,69,0.00,,,0.00,163.000000,,2013-07-08 15:11:00,
2013-07-08 08:22:00,62.0,52.0,-100.00,SW,216,0.0,3.0,69,0.00,,,0.00,163.000000,,2013-07-08 15:22:00,
2013-07-08 08:53:00,63.0,53.0,-100.00,North,350,1.0,3.0,69,0.00,,,0.00,320.000000,,2013-07-08 15:53:00,
2013-07-08 09:01:00,63.0,53.0,-100.00,North,350,1.0,3.0,69,0.00,,,0.00,320.000000,,2013-07-08 16:01:00,
2013-07-08 09:11:00,63.0,53.0,-100.00,North,350,1.0,3.0,69,0.00,,,0.00,320.000000,,2013-07-08 16:11:00,
2013-07-08 09:22:00,63.0,53.0,-100.00,North,350,1.0,3.0,69,0.00,,,0.00,320.000000,,2013-07-08 16:22:00,
2013-07-08 09:57:00,67.0,50.0,-100.00,NW,324,1.0,3.0,55,0.00,,,-99.99,482.000000,,2013-07-08 16:57:00,
2013-07-08 10:04:00,67.0,50.0,-100.00,NW,324,1.0,3.0,55,0.00,,,-99.99,482.000000,,2013-07-08 17:04:00,
2013-07-08 10:13:00,67.0,50.0,-100.00,NW,324,1.0,3.0,55,0.00,,,-99.99,482.000000,,2013-07-08 17:13:00,
2013-07-08 10:25:00,68.0,51.0,-100.00,NNW,348,3.0,6.0,54,0.00,,,0.00,630.000000,,2013-07-08 17:25:00,
2013-07-08 10:54:00,68.0,51.0,-100.00,NNW,348,3.0,6.0,54,0.00,,,0.00,630.000000,,2013-07-08 17:54:00,
2013-07-08 11:03:00,68.0,51.0,-100.00,NNW,348,3.0,6.0,54,0.00,,,0.00,630.000000,,2013-07-08 18:03:00,
2013-07-08 11:16:00,68.0,51.0,-100.00,NNW,348,3.0,6.0,54,0.00,,,0.00,630.000000,,2013-07-08 18:16:00,
2013-07-08 12:00:00,69.0,52.0,-100.00,NNW,328,3.0,6.0,55,0.00,,,-99.99,751.000000,,2013-07-08 19:00:00,
2013-07-08 12:06:00,69.0,52.0,-100.00,NNW,328,3.0,6.0,55,0.00,,,-99.99,751.000000,,2013-07-08 19:06:00,
2013-07-08 12:14:00,69.0,52.0,-100.00,NNW,328,3.0,6.0,55,0.00,,,-99.99,751.000000,,2013-07-08 19:14:00,
2013-07-08 12:24:00,69.0,52.0,-100.00,NNW,328,3.0,6.0,55,0.00,,,-99.99,751.000000,,2013-07-08 19:24:00,
2013-07-08 13:15:00,71.0,54.0,-100.00,NW,318,4.0,7.0,54,0.00,,,-99.99,840.000000,,2013-07-08 20:15:00,
2013-07-08 14:05:00,72.0,54.0,-100.00,NW,306,6.0,10.0,54,0.00,,,0.00,886.000000,,2013-07-08 21:05:00,
2013-07-08 14:24:00,72.0,54.0,-100.00,NW,306,6.0,10.0,54,0.00,,,0.00,886.000000,,2013-07-08 21:24:00,
2013-07-08 15:06:00,74.0,54.0,-100.00,WNW,303,5.0,10.0,50,0.00,,,0.00,887.000000,,2013-07-08 22:06:00,
2013-07-08 15:23:00,74.0,54.0,-100.00,WNW,303,5.0,10.0,50,0.00,,,0.00,887.000000,,2013-07-08 22:23:00,
2013-07-08 16:05:00,75.0,55.0,-100.00,NW,314,6.0,12.0,49,0.00,,,0.00,846.000000,,2013-07-08 23:05:00,
2013-07-08 16:24:00,75.0,55.0,-100.00,NW,314,6.0,12.0,49,0.00,,,0.00,846.000000,,2013-07-08 23:24:00,
2013-07-08 17:05:00,75.0,53.0,-100.00,WNW,303,6.0,12.0,46,0.00,,,0.00,760.000000,,2013-07-09 00:05:00,
2013-07-08 17:15:00,75.0,53.0,-100.00,WNW,303,6.0,12.0,46,0.00,,,0.00,760.000000,,2013-07-09 00:15:00,
2013-07-08 17:23:00,75.0,53.0,-100.00,WNW,303,6.0,12.0,46,0.00,,,0.00,760.000000,,2013-07-09 00:23:00,
2013-07-08 18:05:00,76.0,54.0,-100.00,NW,313,5.0,11.0,46,0.00,,,0.00,632.000000,,2013-07-09 01:05:00,
2013-07-08 18:15:00,76.0,54.0,-100.00,NW,313,5.0,11.0,46,0.00,,,0.00,632.000000,,2013-07-09 01:15:00,
2013-07-08 19:15:00,75.0,56.0,-100.00,NW,310,4.0,10.0,51,0.00,,,0.00,474.000000,,2013-07-09 02:15:00,
2013-07-08 20:06:00,73.0,55.0,-100.00,WNW,287,4.0,10.0,54,0.00,,,0.00,323.000000,,2013-07-09 03:06:00,
2013-07-08 20:15:00,73.0,55.0,-100.00,WNW,287,4.0,10.0,54,0.00,,,0.00,323.000000,,2013-07-09 03:15:00,
2013-07-08 21:02:00,70.0,53.0,-100.00,West,281,4.0,8.0,55,0.00,,,0.00,165.000000,,2013-07-09 04:02:00,
2013-07-08 21:11:00,70.0,53.0,-100.00,West,281,4.0,8.0,55,0.00,,,0.00,165.000000,,2013-07-09 04:11:00,
2013-07-08 21:22:00,70.0,53.0,-100.00,West,281,4.0,8.0,55,0.00,,,0.00,165.000000,,2013-07-09 04:22:00,
2013-07-08 21:53:00,64.0,50.0,-100.00,SW,228,2.0,5.0,60,0.00,,,0.00,34.000000,,2013-07-09 04:53:00,
2013-07-08 22:02:00,64.0,50.0,-100.00,SW,228,2.0,5.0,60,0.00,,,0.00,34.000000,,2013-07-09 05:02:00,
2013-07-08 22:11:00,64.0,50.0,-100.00,SW,228,2.0,5.0,60,0.00,,,0.00,34.000000,,2013-07-09 05:11:00,
2013-07-08 22:22:00,64.0,50.0,-100.00,SW,228,2.0,5.0,60,0.00,,,0.00,34.000000,,2013-07-09 05:22:00,
2013-07-08 22:52:00,61.0,53.0,-100.00,SE,129,2.0,4.0,76,0.00,,,-99.99,0.000000,,2013-07-09 05:52:00,
2013-07-08 23:01:00,61.0,53.0,-100.00,SE,129,2.0,4.0,76,0.00,,,-99.99,0.000000,,2013-07-09 06:01:00,
2013-07-08 23:11:00,61.0,53.0,-100.00,SE,129,2.0,4.0,76,0.00,,,-99.99,0.000000,,2013-07-09 06:11:00,
2013-07-08 23:22:00,61.0,53.0,-100.00,SE,129,2.0,4.0,76,0.00,,,-99.99,0.000000,,2013-07-09 06:22:00,
2013-07-08 23:53:00,60.0,52.0,-100.00,SE,141,0.0,4.0,75,0.00,,,0.00,0.000000,,2013-07-09 06:53:00,